![]() |
EMODnet Physics ERDDAP
Easier access to scientific data |
log in|
Brought to you by EMODnet Physics |
| Dataset Title: | NDBC - Collection of dew point temperature (DEWT) TimeSeries - IN SITU MultiPointTimeSeriesObservation
|
| Institution: | NDBC (Dataset ID: TS_DEWT_NDBC) |
| Information: | Summary
| License
| FGDC
| ISO 19115
| Metadata
| Background
| Subset
| Data Access Form
| Make a graph
|
| Name | Last modified | Size | Description | |
|---|---|---|---|---|
| Parent Directory | - | - | ||
| 44087_TS_DEWT_012019.nc | 26-Oct-2024 18:24 | 917992 | ||
| 44087_TS_DEWT_012020.nc | 26-Oct-2024 18:24 | 1029770 | ||
| 44087_TS_DEWT_012021.nc | 26-Oct-2024 18:24 | 1025554 | ||
| 44087_TS_DEWT_012022.nc | 26-Oct-2024 18:24 | 424810 | ||
| 44087_TS_DEWT_012023.nc | 26-Oct-2024 18:24 | 3448364 | ||
| 44087_TS_DEWT_012024.nc | 26-Oct-2024 18:24 | 4908906 | ||
| 44087_TS_DEWT_022019.nc | 26-Oct-2024 18:24 | 429563 | ||
| 44087_TS_DEWT_022020.nc | 26-Oct-2024 18:24 | 429592 | ||
| 44087_TS_DEWT_022021.nc | 26-Oct-2024 18:25 | 424665 | ||
| 44087_TS_DEWT_022023.nc | 26-Oct-2024 18:25 | 429600 | ||
| 44087_TS_DEWT_022024.nc | 16-Sep-2024 16:51 | 429587 | ||
| 44087_TS_DEWT_032019.nc | 26-Oct-2024 18:25 | 449851 | ||
| 44087_TS_DEWT_032021.nc | 26-Oct-2024 18:25 | 450687 | ||
| 44087_TS_DEWT_032022.nc | 26-Oct-2024 18:25 | 451029 | ||
| 44087_TS_DEWT_032023.nc | 26-Oct-2024 18:25 | 450347 | ||
| 44087_TS_DEWT_042019.nc | 26-Oct-2024 18:25 | 449506 | ||
| 44087_TS_DEWT_042021.nc | 26-Oct-2024 18:25 | 449669 | ||
| 44087_TS_DEWT_042022.nc | 26-Oct-2024 18:25 | 450096 | ||
| 44087_TS_DEWT_042023.nc | 26-Oct-2024 18:25 | 451317 | ||
| 44087_TS_DEWT_052019.nc | 26-Oct-2024 18:25 | 451167 | ||
| 44087_TS_DEWT_052020.nc | 26-Oct-2024 18:25 | 429810 | ||
| 44087_TS_DEWT_052021.nc | 26-Oct-2024 18:25 | 449715 | ||
| 44087_TS_DEWT_052022.nc | 26-Oct-2024 18:25 | 449776 | ||
| 44087_TS_DEWT_062019.nc | 26-Oct-2024 18:25 | 450361 | ||
| 44087_TS_DEWT_062020.nc | 26-Oct-2024 18:25 | 449278 | ||
| 44087_TS_DEWT_062021.nc | 26-Oct-2024 18:25 | 450310 | ||
| 44087_TS_DEWT_062023.nc | 26-Oct-2024 18:25 | 450711 | ||
| 44087_TS_DEWT_072019.nc | 26-Oct-2024 18:25 | 451713 | ||
| 44087_TS_DEWT_072020.nc | 26-Oct-2024 18:25 | 1260183 | ||
| 44087_TS_DEWT_072021.nc | 26-Oct-2024 18:25 | 910394 | ||
| 44087_TS_DEWT_072022.nc | 26-Oct-2024 18:25 | 1264726 | ||
| 44087_TS_DEWT_072023.nc | 26-Oct-2024 18:25 | 1263830 | ||
| 44087_TS_DEWT_082018.nc | 26-Oct-2024 18:25 | 4319900 | ||
| 44087_TS_DEWT_082019.nc | 26-Oct-2024 18:25 | 3168388 | ||
| 44087_TS_DEWT_082020.nc | 26-Oct-2024 18:26 | 429267 | ||
| 44087_TS_DEWT_082021.nc | 26-Oct-2024 18:26 | 429273 | ||
| 44087_TS_DEWT_082022.nc | 26-Oct-2024 18:26 | 429263 | ||
| 44087_TS_DEWT_082023.nc | 26-Oct-2024 18:26 | 429272 | ||
| 44087_TS_DEWT_092018.nc | 26-Oct-2024 18:26 | 448800 | ||
| 44087_TS_DEWT_092019.nc | 26-Oct-2024 18:26 | 450144 | ||
| 44087_TS_DEWT_092020.nc | 26-Oct-2024 18:26 | 450383 | ||
| 44087_TS_DEWT_092021.nc | 26-Oct-2024 18:26 | 449551 | ||
| 44087_TS_DEWT_092022.nc | 26-Oct-2024 18:26 | 449068 | ||
| 44087_TS_DEWT_092023.nc | 26-Oct-2024 18:26 | 449108 | ||
| 44087_TS_DEWT_102018.nc | 26-Oct-2024 18:26 | 450412 | ||
| 44087_TS_DEWT_102019.nc | 26-Oct-2024 18:26 | 449194 | ||
| 44087_TS_DEWT_102020.nc | 26-Oct-2024 18:26 | 449653 | ||
| 44087_TS_DEWT_102021.nc | 26-Oct-2024 18:26 | 429468 | ||
| 44087_TS_DEWT_102023.nc | 26-Oct-2024 18:26 | 449772 | ||
| 44087_TS_DEWT_112018.nc | 26-Oct-2024 18:26 | 449606 | ||
| 44087_TS_DEWT_112019.nc | 26-Oct-2024 18:26 | 449208 | ||
| 44087_TS_DEWT_112020.nc | 26-Oct-2024 18:26 | 449073 | ||
| 44087_TS_DEWT_112023.nc | 26-Oct-2024 18:26 | 449280 | ||
| 44087_TS_DEWT_122018.nc | 26-Oct-2024 18:26 | 450160 | ||
| 44087_TS_DEWT_122019.nc | 26-Oct-2024 18:26 | 450633 | ||
| 44087_TS_DEWT_122020.nc | 26-Oct-2024 18:26 | 1042138 | ||
| 44087_TS_DEWT_122021.nc | 26-Oct-2024 18:27 | 1044940 | ||
| 44087_TS_DEWT_122023.nc | 26-Oct-2024 18:27 | 1112064 | ||